Regional Weather Roundup
Issued by NWS

Home | Current Version | Previous Version | Text Only | Print | Product List | Glossary Off
Versions: 1 2 3 4 5 6 7 8 9 10 11 12 13 14 15 16 17 18 19 20 21 22 23 24 25 26 27 28 29 30 31 32 33 34 35 36 37 38 39 40 41 42 43 44 45 46 47 48 49 50

000
ASUS43 KLOT 070612
RWRIL

ILLINOIS REGIONAL WEATHER ROUNDUP
NATIONAL WEATHER SERVICE CHICAGO/ROMEOVILLE IL
100 AM CDT TUE JUL 07 2015

NOTE: "FAIR" INDICATES FEW OR NO CLOUDS BELOW 12,000 FEET WITH NO
SIGNIFICANT WEATHER AND/OR OBSTRUCTIONS TO VISIBILITY.

* THESE STATIONS ARE NOT UNDER NWS QUALITY CONTROL. THEY ALSO MAY NOT
  REPORT WEATHER SUCH AS PRECIPITATION OR FOG.

ILZ001-002-007-009-015-016-024-070700-
NORTHWEST ILLINOIS

CITY           SKY/WX    TMP DP  RH WIND       PRES   REMARKS
MOLINE         RAIN      67  63  87 NW9G22    29.88R FOG
6HR MIN TEMP:  67; 6HR MAX TEMP:  72; 6HR PCP:  2.24;

STERLING*      CLOUDY    70  66  88 NW8       29.84S
SAVANNA*       CLOUDY    65  62  90 N10G17    29.89R
$$

ILZ003-004-008-010-011-017-018-070700-
NORTH CENTRAL ILLINOIS

CITY           SKY/WX    TMP DP  RH WIND       PRES   REMARKS
ROCKFORD       LGT RAIN  69  65  86 NW17G24   29.86R FOG
6HR MIN TEMP:  69; 6HR MAX TEMP:  80; 6HR PCP:  0.17;

FREEPORT*      LGT RAIN  63  62  97 N10       29.90R
ROCHELLE*      CLOUDY    70  68  94 W12       29.85F
DE KALB*       CLOUDY    68  67  96 CALM      29.86S
PERU*          CLOUDY    71  69  95 SW3       29.86S
$$

ILZ005-006-012>014-019>023-070700-
NORTHEAST ILLINOIS

CITY           SKY/WX    TMP DP  RH WIND       PRES   REMARKS
CHICAGO-OHARE  CLOUDY    71  69  93 W7        29.83F
6HR MIN TEMP:  70; 6HR MAX TEMP:  79; 6HR PCP:  0.44;

CHICAGO-MIDWAY LGT RAIN  73  69  87 S6        29.84F
6HR MIN TEMP:  73; 6HR MAX TEMP:  83; 6HR PCP:  0.37;

AURORA         CLOUDY    72  68  87 S6        29.85F
6HR MIN TEMP:  71; 6HR MAX TEMP:  80; 6HR PCP:  1.41;

LANSING*       CLOUDY    73  68  83 W5        29.86S
JOLIET*        CLOUDY    72  71  97 S3        29.86S
WAUKEGAN       CLOUDY    71  69  93 VRB5      29.80F
6HR MIN TEMP:  70; 6HR MAX TEMP:  79; 6HR PCP:  0.47;

DUPAGE AIRPORT CLOUDY    70  68  93 S3        29.84F
6HR MIN TEMP:  70; 6HR MAX TEMP:  79; 6HR PCP:  1.20;

KANKAKEE*      CLOUDY    75  72  89 W7        29.87S
WHEELING       CLOUDY    71  69  93 SW6       29.83F
6HR MIN TEMP:  71; 6HR MAX TEMP:  81; 6HR PCP:  0.77;

MORRIS*        CLOUDY    71  70  96 CALM      29.83F
ROMEOVILLE*    CLOUDY    71  70  98 SW5       29.85F
NORTHERLY ISL    N/A     72  68  87 S2          N/A
$$

LMZ740>746-070700-
SOUTHERN LAKE MICHIGAN

STATION/POSITION SKY/WX   TEMP    WIND        PRES    VSBY  WAVE
                          AIR SEA DIR/SP/G                  HT/PER
                          (F)     (DEG/KT/KT) (MB)    (MI)  (FT/S)
HARRISON CRIB              71     270/ 16/ 19   N/A
BURNHAM HARBOR             72     220/  5/  9   N/A
CALUMET HARBOR             73     250/  4/  9   N/A
BURNS HARBOR               77     190/ 11/ 13 1011.5F
MICHIGAN CITY              76     170/  9/ 11   N/A
MICHIGAN CITY 6N           71 68  270/  8/ 12   N/A           1
ST. JOSEPH                 70 66  310/  8/ 25   N/A           1/ 3
$$

ILZ025>027-034>036-040-047-049-050-058-095>099-070700-
WEST-CENTRAL ILLINOIS

CITY           SKY/WX    TMP DP  RH WIND       PRES   REMARKS
QUINCY         CLOUDY    72  70  93 W7        29.87S
GALESBURG*     CLOUDY    70  69  97 W3        29.86S
MACOMB*        CLOUDY    70  70  99 W3        29.88S
JACKSONVILLE*  LGT RAIN  75  73  93 SW5       29.88S
PITTSFIELD*    LGT RAIN  73  70  92 S5        29.89S
$$

ILZ028>032-037-038-041>044-048-051>054-059>061-070700-
CENTRAL ILLINOIS

CITY           SKY/WX    TMP DP  RH WIND       PRES   REMARKS
PONTIAC        HVY RAIN  73  72  98 W8        29.89R
BLOOMINGTON    LGT RAIN  77  74  90 W12       29.89R
DECATUR        CLOUDY    77  73  87 S14       29.88F
PEORIA         LGT RAIN  74  70  87 CALM      29.86F FOG
6HR MIN TEMP:  74; 6HR MAX TEMP:  86; 6HR PCP:  0.20;

LACON*         CLOUDY    71  69  95 S3        29.85S
LINCOLN*       CLOUDY    77  70  79 NW5       29.88R
SPRINGFIELD    CLOUDY    80  73  79 S12G20    29.86F HX  84
6HR MIN TEMP:  79; 6HR MAX TEMP:  84;

TAYLORVILLE    CLOUDY    75  73  94 S12       29.88S
$$

ILZ033-039-045-046-055>057-062-063-070700-
EAST-CENTRAL ILLINOIS

CITY           SKY/WX    TMP DP  RH WIND       PRES   REMARKS
CHAMPAIGN      CLOUDY    76  73  91 S9        29.89F
DANVILLE*      RAIN      75  73  93 S9G16     29.87F
RANTOUL*       CLOUDY    77  74  90 S9        29.88F
MATTOON        MOCLDY    76  73  91 S9        29.90F
PARIS*         PTCLDY    75  74  95 S9        29.92S
$$

ILZ079-100>102-070700-
SOUTHWEST ILLINOIS

CITY           SKY/WX    TMP DP  RH WIND       PRES   REMARKS
ALTON          CLOUDY    78  78 100 S10       29.90S
BELLEVILLE     CLOUDY    78  77  97 S13       29.90S HX  81
CAHOKIA*       CLOUDY    80  73  79 S7        29.89F HX  84
SPARTA*        MOCLDY    77  73  88 S10G16    29.94F
$$

ILZ064>066-069>071-074>076-080>082-084>086-088>090-092>094-070700-
SOUTH-CENTRAL ILLINOIS

CITY           SKY/WX    TMP DP  RH WIND       PRES   REMARKS
CARBONDALE     MOCLDY    78  73  84 S13       29.95F HX  81
6HR MIN TEMP:  77; 6HR MAX TEMP:  83;

CAIRO*         MOCLDY    77  71  82 SW12G18   29.98F
EFFINGHAM*     PTCLDY    76  72  86 S9        29.93F
MARION         MOCLDY    77  73  88 SW14      29.97S
MT. VERNON     PTCLDY    77  70  78 S8        29.95F
CENTRALIA*     MOCLDY    77  71  81 S9G17     29.93F
SALEM*         MOCLDY    79  73  83 S9        29.93F HX  82
$$

ILZ067-068-072-073-078-083-087-091-070700-
SOUTHEAST ILLINOIS

CITY           SKY/WX    TMP DP  RH WIND       PRES   REMARKS
LAWRENCEVILLE  MOCLDY    76  73  91 S9        29.95F
FLORA*         MOCLDY    77  73  87 S13       29.94F
FAIRFIELD*     MOCLDY    77  73  89 S8        29.94S
HARRISBURG*    PTCLDY    77  75  92 S8        29.98S
ROBINSON*      MOCLDY    76  73  92 S8        29.94F
CARMI*         MOCLDY    76  70  80 S9        29.96S
$$

ABBREVIATIONS USED IN REMARKS
   TC - TEMPERATURE IN CELSIUS
  WCI - WIND CHILL INDEX
   HX - HEAT INDEX
  VSB - VISIBILITY
$$




USA.gov is the U.S. government's official web portal to all federal, state and local government web resources and services.